Lid_Strength_Index
3 3 3 3 3 3 3 3 4 4 5 5 5 5 4 4 4 4 4 4 3 3 3 3 2 2 4 7 4 0 -5 -3 0 3 6 7 8 8 9 9 8 7 7 5 4 5 5
4 3 3 3 3 3 3 3 3 4 4 5 5 4 5 5 4 4 4 4 4 4 3 3 2 2 5 9 2 -0 1 2 4 5 6 7 6 5 8 9 9 7 7 8 6 5 5
4 4 3 3 3 3 3 3 3 3 4 5 4 5 5 5 5 4 4 4 4 4 3 3 2 1 5 8 4 3 4 5 5 5 5 5 5 7 7 9 7 8 8 7 7 6 6
4 4 4 4 3 3 3 3 3 3 3 5 5 5 5 5 5 5 5 5 4 4 3 2 1 3 9 3 4 3 4 4 5 5 4 4 5 6 7 8 9 8 9 11 7 6 6
3 4 4 4 4 4 3 3 3 3 3 3 4 5 5 5 5 4 5 5 4 3 2 1 4 6 6 1 4 5 4 4 4 4 5 3 5 7 7 11 13 11 12 10 8 6 6
3 3 3 4 4 4 4 4 4 4 4 3 3 4 5 5 5 5 5 5 4 4 3 2 2 9 6 5 4 4 5 5 5 5 5 5 8 10 11 12 15 13 12 10 10 7 6
4 3 3 3 4 4 5 4 4 4 4 3 3 3 3 4 5 6 7 9 8 8 8 8 6 7 6 4 4 5 4 5 6 6 9 7 10 12 10 10 10 11 10 10 8 6 8
4 4 4 4 4 4 4 5 4 4 4 4 4 4 3 4 4 5 8 10 7 8 10 7 6 6 4 4 6 5 4 7 7 9 8 10 12 8 7 8 9 11 10 10 8 7 8
4 5 4 4 4 4 4 4 5 4 4 4 4 4 4 4 4 6 8 8 6 7 11 8 7 8 7 6 7 7 6 7 8 9 9 11 9 7 7 8 10 12 10 10 10 8 8
3 4 5 4 4 4 4 4 4 5 4 4 4 4 4 5 7 8 8 5 7 7 13 10 9 7 7 7 8 5 6 6 7 8 8 9 7 8 8 9 9 14 8 8 9 10 14
3 4 4 4 4 4 4 4 4 5 5 4 4 4 4 5 9 9 6 5 5 7 17 7 8 5 7 8 7 7 5 8 8 8 8 9 9 9 9 9 8 10 8 10 10 12 14
2 4 4 4 5 5 5 4 4 4 5 4 4 4 5 6 8 7 5 7 7 12 15 8 7 9 9 9 7 6 7 7 7 8 8 8 6 8 8 7 7 7 9 11 12 13 15
2 3 5 5 5 5 5 5 4 4 4 4 4 5 6 6 10 7 7 8 13 15 9 10 10 10 10 9 9 8 8 10 12 13 13 9 9 8 7 9 8 9 13 16 16 16 15
3 3 3 5 5 5 5 5 5 4 4 5 5 5 7 6 7 7 8 11 16 11 10 8 9 9 10 10 9 9 10 11 10 10 12 12 12 9 7 9 11 11 13 15 18 16 14
3 3 3 3 4 5 5 5 4 5 5 5 6 8 7 7 6 7 10 15 14 11 7 8 9 11 11 10 9 10 10 10 9 9 12 13 12 7 7 7 9 11 12 11 15 16 16
3 2 3 3 3 4 5 5 4 4 5 5 9 8 8 4 6 9 12 14 12 8 7 8 11 10 12 10 10 11 11 9 8 8 9 11 13 10 8 8 9 10 9 13 15 17 18
5 3 3 2 2 3 5 5 5 5 6 6 9 9 6 4 7 11 14 14 10 7 7 9 10 11 11 11 11 11 11 8 8 8 9 11 12 10 9 11 12 11 13 12 13 14 17
5 4 2 2 2 3 4 5 5 5 6 8 9 10 5 5 11 12 13 10 8 8 7 8 8 10 11 10 11 11 10 8 6 8 10 10 12 13 12 9 7 10 11 13 14 15 14
5 5 3 3 2 2 3 3 5 5 6 10 12 9 6 7 13 13 11 9 9 8 8 8 9 8 9 11 13 10 8 7 7 8 10 9 13 15 13 12 10 10 10 12 13 14 15
5 5 4 3 3 2 3 3 3 3 5 9 10 10 9 10 12 13 13 11 10 6 7 8 8 9 10 11 12 12 10 7 6 6 6 7 12 14 15 14 10 11 9 10 12 14 14
5 5 4 3 3 3 3 2 3 3 4 8 10 10 9 11 12 12 12 12 11 9 7 8 10 9 10 13 12 12 10 9 8 6 7 11 13 10 11 10 9 10 10 9 11 12 13
5 5 5 3 3 3 3 2 2 3 4 8 9 9 7 9 9 11 13 13 11 9 9 9 10 9 10 11 12 12 10 12 11 8 8 9 13 11 12 9 9 9 9 9 9 9 10
5 5 5 4 3 4 4 3 2 3 5 7 5 6 7 8 10 9 10 9 9 8 8 7 7 9 8 8 7 8 8 9 10 9 10 10 11 12 15 10 10 12 10 9 9 9 9
5 5 5 5 4 4 4 4 3 3 5 8 8 6 8 10 9 8 7 7 7 8 10 8 8 9 6 5 5 7 7 8 8 9 9 11 12 12 14 12 17 10 9 8 8 10 9
4 4 5 5 4 4 4 5 3 3 4 8 8 7 8 9 7 8 8 7 7 7 7 6 6 7 6 7 10 11 11 11 9 8 10 10 11 13 14 15 12 10 9 10 11 12 9
4 4 5 5 4 4 4 4 4 3 4 8 7 6 8 10 9 7 9 8 9 9 8 7 6 5 6 8 10 14 15 12 12 10 10 10 10 12 14 16 17 11 8 6 8 14 8
4 4 5 5 4 4 5 4 4 3 4 7 8 7 7 10 8 8 10 9 8 9 9 9 8 7 7 9 11 13 13 11 13 13 12 12 12 13 13 15 12 10 8 7 14 12 8
4 4 4 4 5 4 5 5 4 4 4 7 9 7 7 10 8 7 7 10 9 9 10 9 9 9 8 11 12 11 12 10 13 11 13 13 15 14 13 15 16 7 8 12 9 8 7
3 4 4 4 4 5 5 5 5 4 4 5 9 5 5 8 9 6 6 6 8 8 9 9 9 9 8 10 10 11 12 12 12 15 9 14 12 14 13 14 9 7 8 7 6 7 7